Location: Chisholm
(54.9102°N, 114.1701°W)
Time: 03:19:46
(UTC+00:00)

ISS - Pass Details

Date: 01 December 2021
Orbit: 413 x 422 km, 51.6° (Epoch: 23 January)

Event Time Altitude Azimuth Distance (km) Brightness Sun altitude
Rises 23:42:58 0° 252° (WSW) 2,384 2.0 -4.3°
Reaches altitude 10° 23:45:07 10° 247° (WSW) 1,517 0.9 -4.5°
Maximum altitude 23:48:24 46° 173° (S) 584 -2.8 -4.9°
Drops below altitude 10° 23:51:41 10° 99° (E) 1,514 -1.4 -5.3°
Enters shadow 23:53:13 - 94° (E) 2,130 -0.7 -5.5°
